Location: City of Moscow
(46.7306°N, 116.9989°W)
Time: 07:01:27
(UTC+00:00)

USA 234 - Pass Details

Date: 10 March 2026
Orbit: 1102 x 1106 km, 123.0° (Epoch: 4 January)

Event Time Altitude Azimuth Distance (km) Brightness Sun altitude
Exits shadow 02:07:30 - 74° (ENE) 3,515 5.3 -4.6°
Reaches altitude 10° 02:09:03 10° 69° (ENE) 2,967 4.9 -4.8°
Maximum altitude 02:14:55 37° 5° (N) 1,658 4.2 -5.9°
Drops below altitude 10° 02:20:47 10° 301° (WNW) 2,971 6.6 -6.9°
Sets 02:23:27 0° 294° (WNW) 3,929 7.6 -7.3°
